Temp
-6 -6 -5 -5 -5 -5 -5 -5 -5 -4 -4 -4 -3 -3 -3 -3 -3 -4 -3 -3 -3 -3 -3 -4 -4 -4 -5 -5 -5 -5 -6 -6 -6 -6 -6 -7 -7 -7 -7 -8 -8 -8 -7 -7 -7 -7 -7
-6 -6 -6 -5 -5 -5 -5 -5 -5 -5 -4 -4 -4 -3 -3 -3 -3 -4 -4 -4 -3 -3 -3 -3 -4 -4 -4 -4 -5 -5 -5 -6 -6 -6 -7 -6 -6 -6 -6 -7 -8 -8 -8 -8 -7 -7 -7
-7 -6 -6 -6 -5 -5 -5 -5 -5 -5 -5 -4 -4 -4 -4 -3 -3 -4 -4 -4 -4 -3 -3 -3 -3 -4 -4 -4 -4 -5 -5 -6 -6 -6 -7 -7 -7 -7 -7 -7 -8 -8 -8 -8 -7 -7 -8
-7 -7 -6 -6 -6 -5 -5 -5 -5 -5 -5 -5 -4 -4 -4 -4 -3 -3 -4 -4 -4 -3 -3 -3 -3 -3 -3 -4 -5 -5 -5 -5 -5 -5 -6 -7 -8 -7 -7 -7 -7 -8 -7 -7 -7 -7 -7
-7 -7 -7 -7 -6 -6 -5 -5 -5 -5 -5 -5 -5 -4 -4 -4 -4 -3 -4 -4 -4 -3 -3 -3 -3 -3 -3 -4 -4 -4 -4 -5 -5 -6 -5 -7 -7 -7 -7 -7 -7 -7 -7 -7 -7 -7 -8
-8 -7 -7 -7 -7 -6 -6 -6 -5 -5 -5 -5 -5 -5 -4 -4 -4 -4 -3 -3 -3 -3 -3 -3 -3 -3 -3 -3 -3 -3 -3 -4 -5 -6 -6 -6 -7 -7 -7 -7 -7 -7 -7 -7 -7 -7 -7
-8 -8 -7 -7 -7 -7 -7 -6 -6 -5 -5 -5 -5 -5 -5 -4 -4 -4 -4 -4 -3 -3 -3 -3 -3 -4 -3 -2 -3 -3 -3 -4 -4 -4 -5 -7 -7 -8 -8 -7 -7 -7 -7 -7 -7 -7 -7
-8 -8 -8 -8 -7 -7 -7 -7 -6 -6 -6 -6 -5 -5 -5 -5 -4 -4 -4 -4 -4 -4 -3 -3 -4 -4 -3 -3 -4 -3 -3 -4 -4 -4 -4 -6 -8 -8 -7 -7 -6 -7 -7 -7 -6 -7 -7
-8 -9 -9 -9 -8 -8 -7 -7 -7 -6 -6 -6 -6 -5 -5 -5 -5 -4 -4 -4 -4 -4 -3 -3 -3 -3 -3 -3 -4 -4 -3 -4 -4 -3 -4 -5 -7 -7 -7 -7 -6 -7 -7 -6 -6 -6 -6
-9 -9 -9 -9 -8 -8 -7 -7 -7 -6 -6 -6 -6 -6 -5 -5 -5 -5 -5 -5 -4 -4 -4 -3 -3 -4 -3 -3 -3 -3 -3 -3 -4 -4 -4 -5 -5 -6 -6 -6 -6 -7 -7 -6 -5 -5 -6
-8 -9 -9 -9 -8 -8 -7 -7 -7 -6 -6 -6 -6 -6 -6 -5 -5 -5 -5 -5 -5 -4 -4 -4 -4 -4 -3 -3 -4 -4 -3 -3 -3 -4 -4 -5 -4 -5 -6 -6 -5 -6 -6 -6 -5 -5 -5
-7 -8 -8 -8 -8 -8 -7 -7 -7 -6 -6 -6 -6 -6 -6 -6 -5 -5 -5 -5 -5 -5 -4 -4 -4 -4 -3 -4 -3 -3 -3 -3 -4 -4 -3 -4 -4 -5 -5 -5 -5 -6 -6 -6 -6 -5 -5
-7 -7 -7 -7 -7 -7 -7 -7 -7 -7 -6 -6 -6 -7 -6 -6 -6 -5 -5 -5 -5 -5 -5 -4 -4 -4 -4 -4 -4 -4 -3 -3 -3 -3 -3 -4 -4 -5 -5 -4 -5 -5 -6 -6 -6 -6 -5
-7 -7 -7 -7 -7 -7 -7 -7 -7 -7 -7 -6 -6 -7 -7 -7 -6 -6 -6 -6 -5 -5 -5 -5 -5 -4 -4 -4 -4 -4 -4 -4 -4 -3 -4 -4 -5 -4 -4 -5 -5 -6 -6 -6 -6 -6 -5
-7 -6 -6 -6 -6 -6 -6 -6 -6 -6 -6 -7 -7 -7 -7 -7 -7 -7 -7 -5 -5 -5 -5 -5 -5 -5 -5 -4 -4 -4 -4 -4 -4 -4 -4 -4 -4 -4 -4 -5 -4 -5 -5 -6 -6 -6 -5
-6 -6 -6 -6 -6 -6 -6 -6 -6 -6 -6 -7 -7 -7 -7 -7 -7 -8 -8 -6 -5 -6 -6 -6 -6 -5 -5 -5 -4 -4 -4 -4 -4 -4 -4 -4 -5 -5 -5 -4 -4 -4 -5 -6 -6 -5 -5
-7 -7 -7 -6 -6 -6 -6 -6 -6 -6 -6 -6 -7 -7 -8 -7 -7 -8 -7 -7 -7 -7 -6 -6 -6 -6 -6 -5 -5 -4 -4 -5 -5 -5 -4 -5 -5 -5 -5 -4 -4 -5 -5 -5 -6 -6 -6
-7 -7 -7 -7 -7 -7 -6 -6 -6 -6 -6 -6 -7 -8 -8 -8 -8 -7 -7 -7 -7 -8 -7 -7 -7 -7 -7 -6 -5 -5 -4 -5 -5 -5 -5 -5 -5 -5 -5 -5 -5 -5 -5 -5 -5 -6 -6
-7 -7 -7 -7 -7 -7 -7 -6 -6 -6 -6 -6 -8 -9 -8 -9 -9 -8 -8 -8 -8 -8 -8 -8 -8 -7 -8 -7 -7 -6 -5 -5 -5 -5 -5 -6 -5 -5 -5 -6 -5 -4 -4 -5 -5 -6 -6
-7 -7 -8 -7 -7 -7 -7 -7 -6 -6 -7 -8 -9 -11 -10 -10 -10 -10 -9 -9 -9 -9 -9 -9 -8 -7 -7 -8 -8 -7 -6 -6 -5 -5 -5 -6 -6 -5 -5 -5 -5 -5 -5 -5 -5 -5 -6
-8 -8 -8 -8 -8 -8 -8 -7 -7 -7 -8 -10 -11 -13 -13 -13 -12 -11 -10 -10 -9 -9 -9 -9 -9 -8 -8 -8 -7 -7 -7 -6 -5 -5 -6 -5 -5 -6 -6 -6 -6 -6 -5 -5 -5 -5 -6
-8 -8 -8 -8 -8 -8 -8 -8 -8 -9 -11 -13 -14 -15 -15 -15 -14 -13 -12 -11 -10 -10 -9 -8 -9 -9 -9 -7 -7 -8 -8 -7 -6 -7 -6 -6 -6 -6 -6 -6 -6 -6 -6 -6 -6 -6 -6
-8 -8 -8 -9 -9 -9 -9 -9 -10 -12 -14 -14 -16 -16 -16 -16 -16 -15 -14 -13 -11 -11 -10 -9 -9 -10 -10 -9 -9 -8 -8 -7 -7 -7 -7 -7 -7 -8 -7 -7 -7 -6 -6 -6 -6 -6 -6
-9 -9 -9 -9 -9 -9 -9 -11 -13 -14 -15 -16 -16 -16 -16 -16 -16 -15 -15 -14 -13 -11 -10 -10 -10 -10 -10 -10 -10 -9 -8 -8 -7 -7 -8 -8 -7 -8 -8 -8 -7 -6 -6 -6 -6 -6 -6
-9 -9 -9 -10 -10 -10 -10 -12 -14 -15 -15 -16 -16 -16 -16 -16 -16 -15 -15 -15 -14 -12 -11 -10 -10 -10 -10 -10 -10 -9 -9 -9 -8 -8 -8 -8 -8 -8 -8 -8 -8 -7 -7 -7 -6 -6 -6
-9 -10 -10 -10 -10 -10 -11 -13 -15 -15 -16 -16 -16 -16 -16 -16 -16 -16 -15 -15 -14 -12 -11 -11 -11 -11 -10 -10 -10 -9 -9 -9 -8 -8 -8 -8 -8 -8 -8 -8 -7 -6 -7 -7 -7 -6 -6
-10 -10 -10 -11 -11 -11 -12 -14 -15 -15 -16 -16 -17 -16 -16 -16 -16 -16 -16 -15 -14 -13 -12 -12 -11 -11 -10 -10 -10 -9 -9 -9 -9 -9 -8 -8 -8 -8 -8 -8 -8 -7 -8 -7 -7 -5 -6
-10 -10 -11 -11 -11 -12 -13 -14 -15 -15 -16 -16 -16 -16 -16 -16 -16 -16 -16 -15 -14 -14 -12 -12 -12 -12 -10 -10 -10 -9 -9 -9 -9 -8 -8 -8 -8 -8 -8 -8 -8 -8 -7 -7 -7 -7 -7
-10 -11 -11 -11 -12 -13 -14 -15 -15 -15 -16 -16 -15 -15 -15 -15 -17 -16 -15 -15 -13 -14 -13 -12 -12 -11 -11 -10 -10 -9 -9 -9 -9 -9 -9 -8 -8 -8 -8 -9 -8 -8 -8 -8 -8 -7 -7
Height
5905 5907 5909 5911 5913 5916 5918 5921 5923 5924 5924 5925 5925 5926 5927 5929 5931 5932 5934 5935 5937 5939 5941 5943 5944 5943 5943 5946 5947 5947 5948 5949 5949 5949 5949 5950 5949 5949 5946 5946 5946 5945 5945 5943 5943 5941 5940
5902 5903 5905 5908 5909 5912 5915 5918 5920 5922 5924 5924 5925 5925 5926 5928 5929 5931 5932 5934 5935 5938 5941 5943 5944 5945 5946 5946 5947 5948 5949 5951 5952 5952 5951 5952 5953 5952 5949 5947 5948 5949 5950 5948 5947 5944 5944
5897 5899 5901 5903 5906 5908 5911 5914 5917 5920 5922 5923 5923 5924 5925 5926 5928 5930 5931 5933 5934 5936 5939 5942 5943 5944 5946 5947 5948 5950 5949 5951 5952 5952 5952 5952 5953 5953 5953 5951 5950 5951 5953 5953 5952 5949 5948
5892 5894 5896 5899 5901 5904 5906 5909 5912 5916 5918 5920 5922 5923 5924 5925 5926 5928 5930 5932 5934 5935 5937 5940 5942 5943 5945 5946 5947 5949 5950 5951 5953 5953 5952 5952 5952 5954 5955 5955 5955 5955 5956 5956 5957 5955 5953
5886 5887 5890 5893 5896 5899 5901 5904 5908 5911 5914 5917 5920 5921 5922 5923 5924 5926 5929 5931 5932 5933 5935 5937 5941 5943 5945 5947 5948 5948 5949 5950 5952 5953 5953 5953 5954 5955 5959 5959 5960 5960 5959 5959 5960 5960 5957
5880 5881 5883 5886 5889 5893 5896 5899 5902 5906 5910 5913 5916 5918 5920 5921 5922 5923 5926 5928 5930 5931 5934 5936 5940 5943 5945 5946 5947 5948 5949 5950 5951 5952 5955 5957 5956 5958 5959 5960 5962 5963 5962 5961 5961 5963 5962
5872 5874 5876 5879 5883 5887 5890 5894 5897 5900 5905 5909 5912 5915 5917 5918 5920 5921 5923 5926 5929 5932 5933 5936 5938 5940 5941 5944 5946 5948 5949 5950 5952 5953 5953 5955 5956 5958 5960 5961 5962 5962 5964 5964 5962 5964 5964
5867 5867 5867 5870 5875 5879 5884 5888 5891 5894 5898 5902 5906 5909 5912 5914 5916 5919 5921 5923 5925 5928 5929 5931 5933 5936 5938 5941 5943 5944 5948 5951 5951 5952 5952 5954 5956 5958 5959 5961 5962 5963 5964 5964 5964 5963 5966
5864 5862 5862 5863 5867 5873 5878 5882 5887 5890 5893 5896 5900 5904 5907 5909 5912 5916 5918 5920 5922 5923 5925 5928 5930 5932 5936 5939 5940 5942 5944 5947 5950 5950 5952 5954 5956 5957 5960 5960 5962 5962 5963 5964 5965 5965 5966
5863 5860 5858 5860 5862 5867 5872 5878 5883 5886 5888 5891 5895 5898 5901 5904 5909 5912 5914 5916 5918 5919 5922 5925 5927 5928 5934 5936 5938 5939 5941 5945 5947 5949 5951 5953 5955 5956 5959 5960 5961 5962 5963 5963 5965 5967 5967
5863 5860 5859 5859 5861 5864 5868 5873 5878 5882 5884 5886 5889 5893 5895 5899 5901 5906 5911 5912 5913 5915 5918 5921 5922 5924 5930 5934 5933 5937 5938 5941 5944 5947 5951 5953 5953 5956 5958 5959 5960 5961 5963 5963 5964 5967 5968
5865 5862 5860 5860 5861 5863 5866 5869 5872 5876 5879 5881 5883 5885 5889 5892 5895 5899 5903 5907 5908 5911 5913 5916 5918 5921 5925 5928 5930 5932 5935 5938 5941 5944 5947 5950 5953 5955 5957 5958 5959 5959 5961 5964 5965 5966 5967
5865 5863 5862 5861 5861 5862 5864 5866 5868 5870 5872 5874 5876 5877 5880 5884 5888 5891 5895 5899 5902 5904 5910 5911 5913 5915 5918 5921 5925 5928 5931 5935 5937 5940 5945 5949 5952 5953 5955 5957 5958 5957 5960 5963 5965 5965 5966
5865 5863 5862 5861 5860 5860 5860 5861 5862 5864 5865 5867 5870 5872 5872 5873 5878 5881 5886 5890 5893 5901 5903 5905 5908 5911 5914 5916 5919 5922 5926 5930 5933 5938 5942 5945 5949 5950 5952 5955 5957 5957 5959 5962 5963 5964 5965
5864 5862 5860 5859 5858 5856 5855 5855 5855 5855 5856 5857 5859 5862 5863 5864 5868 5871 5874 5879 5889 5894 5897 5899 5902 5904 5908 5912 5915 5918 5922 5926 5929 5934 5938 5942 5946 5948 5949 5951 5953 5955 5957 5961 5962 5962 5963
5862 5860 5858 5855 5853 5851 5850 5848 5847 5846 5845 5846 5846 5849 5852 5855 5858 5861 5864 5871 5879 5884 5890 5893 5895 5898 5902 5906 5910 5914 5916 5921 5924 5929 5933 5938 5941 5944 5946 5948 5950 5952 5956 5957 5959 5960 5960
5859 5856 5854 5851 5848 5845 5843 5841 5838 5836 5834 5834 5834 5835 5838 5841 5843 5847 5855 5864 5869 5873 5879 5883 5888 5891 5894 5898 5903 5907 5913 5917 5919 5923 5927 5932 5935 5940 5942 5944 5946 5950 5952 5954 5955 5956 5956
5854 5851 5848 5845 5842 5838 5835 5833 5830 5826 5823 5821 5821 5820 5823 5827 5830 5836 5845 5851 5858 5862 5866 5872 5878 5883 5888 5890 5894 5899 5907 5912 5914 5918 5922 5927 5930 5931 5937 5938 5941 5944 5947 5949 5949 5953 5952
5849 5845 5842 5838 5834 5830 5826 5822 5819 5815 5810 5806 5804 5805 5807 5810 5815 5822 5828 5834 5841 5849 5855 5859 5864 5872 5878 5883 5889 5893 5901 5906 5907 5910 5914 5920 5924 5928 5932 5935 5939 5941 5943 5944 5945 5947 5948
5843 5839 5835 5830 5825 5821 5816 5811 5806 5801 5796 5791 5788 5787 5790 5793 5798 5803 5810 5817 5825 5832 5840 5847 5855 5859 5868 5874 5880 5886 5893 5898 5901 5904 5910 5912 5917 5921 5927 5933 5935 5936 5938 5939 5940 5942 5944
5837 5832 5827 5822 5817 5811 5805 5800 5793 5787 5780 5776 5771 5770 5772 5777 5781 5786 5794 5802 5810 5821 5831 5837 5845 5852 5858 5865 5871 5882 5887 5892 5895 5898 5903 5907 5909 5915 5922 5927 5928 5931 5932 5934 5935 5938 5939
5830 5824 5819 5814 5808 5802 5795 5787 5779 5773 5766 5761 5758 5758 5760 5764 5768 5773 5779 5789 5797 5805 5821 5831 5840 5846 5847 5858 5866 5874 5882 5887 5890 5893 5896 5900 5904 5909 5914 5918 5922 5925 5927 5928 5930 5932 5934
5822 5817 5811 5805 5798 5792 5784 5775 5767 5760 5755 5751 5749 5749 5750 5752 5756 5762 5768 5776 5784 5796 5811 5821 5833 5835 5839 5852 5858 5866 5873 5879 5883 5888 5891 5896 5899 5903 5907 5913 5916 5916 5921 5922 5924 5926 5929
5814 5809 5802 5796 5788 5781 5773 5764 5757 5751 5747 5744 5742 5741 5741 5744 5747 5752 5758 5766 5774 5786 5801 5810 5817 5824 5840 5841 5849 5857 5865 5872 5878 5882 5886 5890 5894 5898 5902 5906 5905 5912 5915 5917 5919 5920 5923
5807 5800 5793 5786 5779 5770 5761 5753 5747 5742 5739 5736 5734 5732 5732 5736 5738 5744 5752 5759 5767 5776 5790 5798 5808 5819 5825 5834 5842 5850 5856 5863 5870 5875 5880 5885 5889 5891 5894 5898 5901 5903 5907 5910 5912 5914 5916
5799 5792 5785 5777 5769 5760 5751 5743 5737 5733 5730 5727 5726 5725 5723 5725 5730 5735 5744 5754 5762 5769 5779 5788 5799 5809 5817 5826 5834 5841 5848 5857 5864 5869 5873 5878 5882 5886 5888 5891 5892 5899 5901 5902 5903 5902 5909
5791 5784 5776 5768 5759 5750 5741 5734 5728 5725 5721 5717 5715 5716 5716 5717 5722 5728 5738 5747 5756 5762 5771 5781 5791 5800 5809 5817 5825 5835 5843 5849 5855 5861 5867 5870 5874 5878 5880 5883 5886 5890 5893 5895 5893 5900 5902
5783 5775 5767 5759 5750 5741 5733 5727 5721 5718 5713 5710 5708 5708 5708 5710 5715 5722 5733 5742 5750 5757 5766 5777 5786 5793 5802 5810 5817 5825 5835 5841 5846 5852 5857 5863 5867 5871 5874 5876 5879 5883 5885 5888 5889 5888 5891
5775 5767 5759 5751 5742 5733 5726 5720 5715 5711 5708 5705 5703 5702 5703 5704 5712 5719 5729 5739 5746 5754 5762 5771 5780 5786 5792 5801 5809 5817 5825 5831 5837 5842 5848 5854 5858 5863 5868 5870 5873 5876 5878 5881 5882 5883 5885
Wind_Speed
23 21 19 21 28 29 25 21 16 13 12 11 10 12 13 15 16 16 13 12 10 8 8 10 12 11 11 12 12 20 23 21 21 21 27 24 26 25 31 32 30 31 33 26 25 24 24
26 25 23 22 22 31 31 26 22 17 14 14 12 12 14 15 16 17 17 15 14 12 10 10 11 12 11 10 9 10 21 27 22 20 23 25 24 22 24 30 29 24 23 26 22 28 26
27 29 27 25 24 23 33 33 28 23 18 16 15 13 14 15 17 18 18 18 16 15 13 11 12 11 12 13 9 10 12 22 23 20 21 22 19 20 23 25 27 21 23 27 21 24 28
29 30 31 30 27 26 27 36 34 29 24 20 17 16 15 16 17 19 18 18 18 18 16 13 13 13 13 12 9 12 16 22 20 17 16 18 19 19 19 22 24 22 26 25 27 26 25
26 30 32 32 34 30 27 31 38 35 30 25 20 18 17 16 17 19 19 18 20 20 19 16 15 14 13 12 12 11 12 19 13 17 17 20 21 21 14 14 16 17 19 20 22 21 22
26 30 30 32 34 34 33 29 36 40 35 30 25 21 19 18 18 18 20 20 20 21 20 18 15 16 15 14 15 13 11 12 12 14 17 20 18 19 13 8 9 8 12 15 17 17 18
23 30 31 31 31 35 34 34 30 39 41 36 31 26 22 20 20 19 18 20 21 20 19 18 15 16 18 17 15 14 11 12 11 9 7 14 18 14 11 10 9 8 3 6 13 13 13
17 22 27 33 32 32 34 34 32 30 41 42 37 32 28 24 22 21 18 16 18 20 22 22 21 19 20 17 18 19 15 14 15 13 9 10 12 14 11 9 5 7 2 4 7 10 9
13 16 20 25 32 31 32 34 32 29 32 42 42 38 33 30 26 22 19 19 17 20 24 24 23 22 21 19 20 21 18 17 18 14 10 10 14 14 16 13 6 3 2 2 5 13 13
10 9 11 15 21 28 27 31 31 28 26 34 43 44 39 36 32 26 22 21 20 20 21 23 22 24 21 20 23 24 23 21 19 17 15 15 12 12 16 15 9 3 4 2 7 10 13
13 8 6 7 12 20 22 27 29 28 26 25 35 43 45 42 38 34 28 24 23 23 22 25 26 26 22 21 25 24 27 23 20 20 17 15 12 9 18 18 11 7 4 5 7 7 4
16 11 7 6 8 14 20 25 28 30 28 27 27 37 43 45 45 40 35 30 28 28 24 23 25 24 24 24 26 27 27 25 24 22 17 17 10 8 15 18 14 9 7 12 7 4 3
19 17 10 7 9 13 18 23 27 31 33 33 31 32 39 44 46 47 42 37 35 32 26 27 25 26 27 28 26 25 28 27 27 24 18 16 11 10 14 15 16 14 13 11 9 5 2
19 20 18 16 11 11 17 23 29 32 34 37 36 35 37 41 45 47 48 44 43 34 30 29 28 28 28 29 30 29 29 29 29 24 20 18 18 19 18 17 18 17 17 13 10 8 9
20 19 20 19 18 17 16 17 24 31 36 40 41 41 42 42 43 45 48 52 46 39 35 32 31 32 31 30 31 30 29 29 28 25 24 22 21 22 21 23 21 22 18 14 14 15 14
19 21 21 22 23 22 22 23 23 23 30 39 43 46 46 47 45 46 49 51 50 44 38 36 35 35 34 31 32 32 31 28 27 27 26 24 26 24 24 24 23 23 20 19 18 19 20
23 23 24 25 26 25 25 26 29 30 29 31 43 48 49 51 52 52 48 50 48 46 44 41 39 38 36 35 34 34 32 28 28 28 28 27 30 27 26 24 23 26 25 20 22 20 21
28 28 28 29 29 29 29 31 34 35 35 33 33 45 51 53 57 55 51 46 51 46 46 45 44 41 38 38 37 36 32 31 31 30 29 29 33 34 29 27 28 32 33 31 30 25 23
30 32 33 33 33 34 35 35 38 40 39 40 39 39 47 54 58 58 56 54 51 51 49 48 49 47 45 43 40 37 31 31 35 35 32 33 35 35 31 29 26 28 32 34 31 29 28
33 35 35 36 37 37 39 40 42 45 45 44 43 40 43 48 58 60 60 60 57 54 54 54 52 52 50 47 44 38 33 34 39 39 34 37 36 36 31 27 24 28 30 35 34 32 31
35 37 37 39 39 41 43 44 48 50 49 44 42 39 39 41 50 59 61 63 63 57 55 57 56 53 53 51 47 38 34 34 40 38 35 38 40 38 32 31 29 26 29 35 32 31 32
40 36 38 41 39 42 44 47 50 47 41 39 34 32 34 37 44 51 54 60 64 60 56 57 57 52 52 52 49 42 37 33 37 37 36 38 40 39 36 36 33 29 29 30 30 31 33
38 36 40 40 41 43 46 47 47 40 35 29 27 27 30 35 39 43 47 52 59 59 53 55 54 54 52 46 45 43 41 38 38 36 36 38 41 36 36 34 31 38 35 35 34 33 31
36 40 42 43 43 45 46 45 39 34 31 27 28 28 29 33 36 41 43 46 50 57 54 53 55 59 49 50 45 42 40 38 35 35 37 36 42 38 31 26 40 38 39 41 37 35 33
39 39 42 43 45 45 45 41 36 32 31 29 26 27 25 34 32 37 42 40 41 50 53 51 52 52 58 52 49 44 43 42 38 34 39 36 36 39 33 33 37 41 41 43 40 38 37
38 40 43 44 45 45 43 38 32 29 30 31 29 26 27 37 37 40 41 37 33 42 49 49 48 48 50 58 53 50 47 44 41 37 36 36 38 39 37 38 40 34 37 43 45 43 38
40 43 41 43 46 45 41 35 29 26 30 31 30 27 26 25 37 38 40 36 33 36 44 45 44 44 47 53 56 53 51 46 45 41 40 39 40 43 43 41 38 34 31 31 37 38 39
43 41 43 45 45 44 38 33 28 26 27 23 20 23 23 20 45 41 40 38 32 34 39 42 40 44 45 50 51 52 53 52 50 49 45 44 42 39 43 44 42 37 33 30 24 30 36
42 44 44 45 45 41 34 31 27 27 24 22 18 17 16 19 37 41 40 39 30 33 37 39 40 44 47 47 49 45 46 52 56 56 51 51 49 47 44 39 40 38 38 36 30 23 31
Wind_Direction
241 242 234 231 226 222 222 222 225 228 217 211 209 211 213 218 214 219 222 228 218 204 178 166 157 154 149 136 125 125 127 124 122 120 103 96 100 98 93 80 70 55 43 51 61 61 67
244 242 240 236 232 226 224 225 224 230 229 217 215 215 216 215 219 218 220 227 232 219 199 178 177 170 168 157 127 134 128 133 129 122 109 100 95 96 88 87 78 65 47 45 54 60 59
247 245 243 239 237 232 226 225 225 226 230 227 218 218 222 221 218 222 223 224 231 229 214 191 192 187 184 180 153 151 146 146 137 124 119 101 88 88 82 82 77 71 62 53 48 61 55
249 246 244 243 239 238 232 225 224 226 228 232 223 220 222 227 224 222 226 227 227 230 226 207 196 203 196 192 179 171 166 160 148 136 135 104 96 89 77 75 77 77 81 73 53 54 63
251 249 244 242 241 238 239 232 225 225 227 230 233 224 224 225 230 227 224 226 227 228 227 220 204 207 212 194 188 202 189 179 165 138 132 119 115 103 91 81 77 77 80 72 60 54 49
255 250 246 243 240 237 236 238 232 227 226 228 232 234 226 228 229 232 228 226 227 229 227 227 217 215 209 200 199 205 207 198 180 156 145 145 129 121 114 93 99 69 70 80 63 53 55
264 251 247 245 241 238 234 233 238 231 227 227 229 233 236 230 232 232 234 230 230 232 233 232 223 214 221 205 197 212 216 206 205 199 155 149 138 141 168 153 147 136 71 40 93 57 49
279 263 249 241 239 237 234 231 233 237 231 228 228 230 236 238 235 233 235 239 234 229 229 227 222 218 223 211 197 206 209 211 212 212 178 156 170 179 190 190 161 133 100 5 91 89 64
305 281 261 246 236 233 232 231 233 236 237 233 231 231 233 240 241 237 238 238 236 229 229 229 225 224 222 210 203 206 211 207 218 220 195 171 197 202 201 228 215 159 235 91 87 112 109
337 314 271 249 235 228 230 230 232 238 243 238 235 233 234 236 241 241 240 240 237 236 230 230 227 227 219 214 209 209 212 208 217 222 213 191 212 230 228 229 228 190 256 174 141 128 120
1 341 324 240 235 227 226 228 232 236 243 247 240 238 235 237 237 240 242 243 242 237 231 228 223 224 221 209 216 207 216 212 217 220 222 212 222 221 228 222 226 217 157 136 144 157 123
13 3 333 305 242 232 235 229 230 232 239 242 243 238 239 237 239 237 238 241 243 240 232 230 225 223 219 213 218 213 214 217 212 219 218 224 217 225 226 227 210 185 180 151 159 176 90
1 6 357 329 284 260 248 244 242 239 239 241 240 238 235 238 238 239 238 236 240 242 238 233 228 221 218 215 215 215 213 217 217 221 215 221 202 212 217 222 217 181 177 191 191 226 220
347 349 353 352 333 286 267 258 256 253 249 247 246 246 243 235 235 235 237 238 236 239 239 237 234 229 223 220 213 208 211 214 218 221 218 211 206 203 202 202 208 191 189 202 218 227 250
346 345 342 339 334 326 316 297 272 258 254 251 248 246 245 247 239 234 232 234 237 235 236 236 235 234 230 226 219 216 212 212 213 215 217 214 206 209 210 206 211 207 200 211 218 234 252
335 336 334 330 326 322 318 310 306 296 268 252 249 244 242 244 244 240 236 229 232 236 233 233 231 234 234 230 229 225 218 214 214 211 212 213 210 210 213 217 223 219 202 211 225 240 254
330 330 328 325 323 316 314 313 309 303 295 270 251 245 240 238 239 240 240 237 230 229 230 227 227 229 230 233 230 229 221 213 214 214 215 210 208 208 215 218 220 217 213 218 230 248 262
324 324 325 324 320 317 314 318 311 306 304 288 263 250 242 237 236 237 238 234 233 226 225 222 224 221 221 228 231 230 227 216 213 215 217 215 220 209 209 212 214 211 217 221 235 238 248
324 321 319 319 318 316 313 315 316 310 307 301 282 257 246 237 235 233 231 230 227 225 222 216 217 217 216 225 230 233 228 220 218 215 210 211 221 216 211 217 226 232 229 226 234 231 239
324 322 318 316 317 316 314 315 317 316 309 301 288 270 252 242 232 231 228 225 224 220 218 216 214 218 217 219 224 228 227 221 223 220 212 213 213 219 221 227 230 234 234 232 231 236 238
321 321 317 317 318 316 316 317 317 315 309 299 285 270 259 245 233 229 227 225 222 222 217 219 213 217 217 218 222 220 225 226 224 222 215 219 224 216 212 211 225 227 227 228 230 237 240
320 320 318 316 317 319 321 322 320 313 306 294 281 268 256 243 231 230 228 226 223 219 216 218 217 215 219 220 222 213 216 220 223 219 216 219 223 219 214 208 219 221 216 223 229 239 243
320 319 319 318 319 323 324 321 317 309 303 291 280 265 257 243 233 230 227 226 225 221 211 214 216 210 214 217 220 218 216 213 216 217 219 220 221 217 224 218 217 223 215 222 230 238 246
319 320 320 321 321 324 324 320 312 300 300 295 285 274 267 236 234 231 226 222 226 219 211 211 215 213 215 215 213 218 215 216 223 218 214 220 222 223 224 218 227 227 222 228 238 245 251
322 323 322 323 325 325 322 317 307 293 290 293 287 276 271 232 237 227 223 222 222 218 210 210 212 215 215 220 214 212 217 217 223 233 218 219 226 231 230 228 240 241 237 238 240 247 253
324 326 325 325 326 324 321 316 304 291 288 286 284 274 277 245 239 219 210 214 217 214 210 210 209 212 214 221 221 216 218 222 223 227 233 230 228 232 236 240 243 261 263 255 251 252 250
327 328 327 327 327 324 321 315 305 295 294 289 282 268 271 235 212 211 208 202 207 212 208 207 206 208 212 219 226 224 221 222 223 224 226 231 234 237 242 248 258 261 265 266 258 264 254
325 328 330 327 325 323 320 316 308 305 302 300 290 270 264 235 212 202 204 198 200 205 203 203 203 205 213 219 226 228 227 226 228 226 226 228 234 239 243 248 255 261 270 273 275 259 247
325 327 328 326 327 323 319 315 311 311 305 302 288 261 266 244 207 198 203 195 197 199 197 197 201 205 214 219 224 228 229 231 233 233 231 238 239 242 245 250 257 259 264 272 275 267 247